FMNM

Amborovy Airport

Airport
ICAO code
FMNM
IATA Code
MJN
Summary
ICAO Region
AFI
ICAO Territory
Location

Amborovy, Boeny

Serving
Mahajanga
Elevation
87 ft
Coordinates
15° 40' 1" S , 46° 21' 6" E
KCC
Metar
FMNM 192200Z 19003KT 160V220 CAVOK 22/13 Q1019

Amborovy Airport, also known as Philibert Tsiranana Airport, is an airport in Mahajanga, Madagascar.

Climatology

Tropical savanna climate (Köppen climate classification Aw)

Runways

Designator Length Width Surface Rops
14/32 2200 45 ASP No/No

Airport map

Aerial View

SKYbrary Partners:

Safety knowledge contributed by: